Location: San Antonio
(29.4240°N, 98.4930°W)
Time: 10:05:09
(UTC-05:00)

A-11 Canister half - Pass Details

Date: 15 July 2024
Orbit: 1523 x 1684 km, 47.3° (Epoch: 18 July)

Event Time Altitude Azimuth Distance (km) Brightness Sun altitude
Rises 10:15:38 0° 285° (WNW) 4,864 11.2 43.5°
Reaches altitude 10° 10:19:32 10° 297° (WNW) 3,853 10.8 44.3°
Maximum altitude 10:27:30 27° 352° (N) 2,690 10.5 46.1°
Drops below altitude 10° 10:35:17 10° 47° (NE) 3,749 11.7 47.8°
Sets 10:39:01 0° 60° (ENE) 4,712 12.1 48.6°
